SCP
0 0 0 0 0 0 0 0 0 0 1 1 1 2 3 3 4 5 6 7 7 7 8 10 10 8 7 6 7 8 7 5 3 3 2 1 1 1 1 1 1 1 1 1
0 0 0 0 0 0 0 0 0 0 0 1 1 2 2 3 4 6 7 7 6 6 8 9 9 8 7 6 6 6 5 4 3 2 2 1 1 1 1 1 1 1 1 1
0 0 0 0 0 0 0 0 0 0 0 0 1 1 1 2 4 6 6 6 5 6 7 8 8 7 6 5 5 5 4 3 2 2 1 1 1 1 1 1 1 1 1 1
0 0 0 0 0 0 0 0 0 0 0 0 0 1 1 2 3 5 5 5 5 6 7 8 7 6 5 5 5 5 4 3 2 2 1 1 1 1 1 1 1 1 1 1
0 0 0 0 0 0 0 0 0 0 0 0 0 0 1 1 2 3 4 5 6 7 7 7 6 5 5 5 5 6 5 4 3 2 2 1 1 1 1 1 1 0 0 0
0 0 0 0 0 0 0 0 0 0 0 0 0 0 0 1 2 3 4 5 7 8 7 6 5 5 5 6 6 6 6 5 4 3 2 2 1 1 1 1 1 0 0 0
0 0 0 0 0 0 0 0 0 0 0 0 0 0 0 1 2 4 6 7 7 6 5 4 4 4 5 5 6 6 6 6 5 4 3 2 1 1 1 1 1 0 0 0
0 0 0 0 0 0 0 0 0 0 0 0 0 0 1 2 4 6 7 7 5 4 3 3 3 3 3 3 4 4 5 5 5 4 3 2 2 1 1 1 1 0 0 0
0 0 0 0 0 0 0 0 0 0 0 0 0 0 1 2 5 6 5 5 4 3 3 2 2 2 2 2 2 3 3 4 4 3 2 2 1 1 1 1 0 0 0 0
0 0 0 0 0 0 0 0 0 0 0 0 0 0 1 2 4 5 4 3 3 3 2 2 2 2 2 2 2 2 2 2 2 2 2 1 1 1 1 0 0 0 0 0
0 0 0 0 0 0 0 0 0 0 0 0 0 0 1 2 3 4 4 3 3 3 3 2 2 2 2 2 2 2 2 2 1 1 1 1 1 1 1 0 0 0 0 0
0 0 0 0 0 0 0 0 0 0 0 0 0 0 1 1 2 3 3 3 3 4 3 3 2 2 2 2 1 1 1 1 1 1 1 1 1 1 0 0 0 0 0 0
0 0 0 0 0 0 0 0 0 0 0 0 0 0 1 2 2 2 3 3 4 4 3 3 2 2 2 1 1 1 1 1 1 1 1 1 1 1 0 0 0 0 0 0
0 0 0 0 0 0 0 0 0 0 0 0 0 1 1 2 3 3 3 4 5 5 4 3 2 2 2 2 2 2 2 2 2 2 1 1 1 1 1 1 1 1 1 1
0 0 0 0 0 0 0 0 0 0 0 0 1 1 2 3 3 4 4 5 6 6 5 4 3 3 3 2 2 2 2 2 2 2 1 1 1 1 1 1 1 1 1 2
0 0 0 0 0 0 0 1 1 0 0 1 1 1 2 4 4 4 4 5 6 6 5 4 4 4 4 3 2 2 2 2 2 2 2 1 1 1 1 1 1 2 2 2
0 0 0 0 0 0 0 1 1 1 1 1 2 2 3 5 5 4 5 5 5 5 5 5 5 4 4 3 2 2 2 2 2 2 1 1 1 1 1 1 2 2 2 2
0 0 0 0 0 0 0 1 1 1 2 2 2 3 4 5 5 4 4 4 4 5 5 5 5 5 4 3 3 3 2 2 2 2 1 1 1 1 1 1 1 2 2 2
0 0 0 0 0 0 0 1 1 2 2 3 3 3 4 5 5 4 3 3 3 4 5 6 6 6 5 4 3 3 2 2 2 2 2 1 1 1 1 1 1 1 1 1
0 0 0 0 0 0 1 1 1 1 2 3 3 4 4 5 4 3 2 2 3 4 5 6 7 6 5 4 3 3 2 2 2 2 2 2 2 2 1 1 1 1 1 1
0 0 0 0 0 1 1 2 1 1 2 3 3 4 4 5 5 4 3 3 3 4 5 6 6 6 5 4 3 3 2 2 2 2 2 2 2 2 2 2 1 1 1 1
0 0 0 0 0 1 1 2 1 1 2 3 3 4 5 6 6 5 4 4 4 4 4 5 5 5 5 4 3 2 2 1 1 2 2 3 3 3 3 2 2 2 2 1
0 1 1 1 1 1 1 2 2 3 3 4 5 6 8 8 7 5 4 3 3 3 3 4 5 5 4 4 3 2 2 1 2 2 3 3 4 4 3 3 3 3 2 2
1 1 1 1 2 2 2 2 4 5 6 6 7 8 8 8 7 5 4 3 3 3 3 3 5 5 5 4 3 2 2 2 2 2 3 4 5 5 4 3 3 3 3 3
1 1 1 2 2 2 2 3 4 5 6 7 7 7 6 6 5 5 4 4 3 3 2 3 5 6 6 5 4 3 3 2 3 3 4 5 6 5 4 2 2 2 2 2
1 1 1 1 1 1 2 2 3 4 5 6 5 4 4 4 4 4 4 4 3 3 2 3 5 6 6 6 4 3 3 2 3 4 5 6 6 6 3 1 0 1 1 1
Wind_Speed
2 2 5 8 8 8 6 8 10 10 5 1 2 4 5 7 9 10 10 10 9 8 7 8 9 10 10 9 10 10 9 8 7 5 4 4 4 4 4 4 6 6 5 5
1 7 12 8 7 8 9 9 9 8 5 2 2 2 2 5 8 11 13 12 11 8 7 8 8 9 10 10 9 9 9 9 8 5 4 4 4 4 4 3 4 6 6 5
8 8 6 8 10 9 9 7 6 5 4 5 4 4 3 1 4 6 9 11 11 13 12 10 9 9 9 9 10 10 9 9 8 6 4 4 3 3 2 3 3 4 5 5
8 11 9 9 10 8 8 8 5 3 2 3 2 1 6 2 2 5 8 9 10 11 11 10 10 10 10 9 9 9 8 8 7 7 7 7 6 4 4 4 3 4 4 5
8 6 7 10 12 9 9 7 3 2 1 2 4 2 6 1 1 5 8 10 10 11 12 11 10 9 9 8 8 8 8 7 7 7 8 7 5 4 3 3 4 4 3 4
9 7 6 9 10 8 5 3 7 6 6 2 3 2 5 4 5 5 7 10 10 11 10 9 7 6 5 6 7 7 8 7 7 7 7 8 7 6 6 5 5 4 3 3
7 9 8 6 5 5 2 6 5 6 5 5 3 2 8 8 7 8 10 10 11 11 10 9 9 8 7 7 7 7 8 7 7 7 7 7 7 7 8 6 5 5 3 3
4 8 7 6 8 7 4 10 8 5 5 5 3 3 7 5 3 6 8 10 11 10 9 10 10 9 8 8 8 8 8 7 7 7 6 6 6 5 5 5 5 5 4 4
7 8 7 7 6 9 5 5 10 8 2 1 4 4 6 4 6 6 8 9 10 10 10 10 9 8 7 8 8 8 8 7 7 7 7 6 6 5 5 5 4 4 4 4
9 5 8 6 2 4 9 8 7 6 4 2 3 3 4 2 4 6 7 9 8 8 8 8 8 8 7 7 6 6 7 7 7 7 6 6 5 6 5 4 4 4 5 4
9 6 8 4 3 7 4 4 6 6 6 6 3 6 6 9 9 10 9 8 9 9 9 8 7 7 7 6 7 6 6 6 6 6 6 5 5 5 5 4 5 4 4 4
9 7 6 8 7 7 8 8 9 6 5 5 5 7 4 6 7 8 9 8 9 8 8 8 8 8 7 7 7 6 6 6 6 6 5 5 4 4 4 3 3 4 4 3
8 8 2 7 8 3 2 4 6 7 6 5 5 6 2 3 5 6 8 9 9 8 7 7 7 8 7 7 7 6 6 6 6 5 5 5 4 4 4 3 2 3 3 3
8 6 8 10 8 3 2 2 4 7 5 5 7 6 3 4 6 6 8 10 9 8 8 8 7 7 7 7 7 6 5 5 6 6 5 5 5 4 4 3 3 3 4 4
6 5 4 5 5 2 2 3 3 5 8 9 9 9 10 10 10 9 9 9 9 8 8 9 9 8 7 7 6 6 6 5 6 6 6 5 5 5 5 4 4 4 4 4
4 4 2 1 1 1 2 4 3 3 4 6 7 4 5 7 6 7 9 10 10 8 7 8 8 8 8 8 8 7 6 6 6 7 6 5 6 6 5 5 5 5 5 5
3 4 4 1 2 4 3 3 1 1 1 6 7 8 8 8 10 12 11 10 10 9 7 8 8 8 8 8 8 8 7 7 7 7 6 6 6 6 6 6 6 6 6 6
3 3 3 2 2 2 7 3 2 4 2 1 4 8 11 10 7 6 8 11 9 8 8 8 7 7 6 6 7 7 7 8 7 7 6 6 7 7 7 7 6 6 5 6
5 6 3 3 2 3 5 3 1 3 3 1 6 9 9 9 8 4 2 7 8 8 7 7 7 6 6 6 7 9 8 8 7 7 6 6 7 8 8 7 7 6 6 7
4 6 5 3 3 4 6 5 1 6 2 3 6 11 10 8 5 3 2 5 6 6 6 7 7 7 7 6 7 9 8 8 7 6 6 6 7 8 8 8 7 6 7 7
3 3 3 4 3 4 5 5 3 5 5 2 5 8 8 5 5 6 6 6 6 7 8 8 8 7 6 7 8 8 7 6 6 7 7 7 7 7 8 8 7 7 7 8
2 2 1 3 3 6 5 3 3 5 3 5 6 6 8 8 9 9 8 8 7 8 7 7 8 6 6 7 9 9 7 6 7 8 8 7 7 7 7 9 7 7 8 8
1 4 3 4 5 3 1 2 2 4 6 6 7 8 10 10 8 7 7 8 7 8 7 7 9 8 6 5 7 9 6 6 8 8 8 8 8 7 7 8 8 6 6 6
3 2 2 2 1 1 3 5 5 5 7 7 10 11 11 10 8 7 6 6 6 7 7 6 8 8 7 6 6 7 7 7 9 10 8 8 8 8 7 5 5 6 5 6
3 2 2 2 1 4 6 5 5 6 8 9 9 10 10 11 8 7 6 6 6 6 6 6 7 8 7 6 6 6 7 9 10 9 8 8 8 8 8 7 5 5 4 4
1 2 3 3 3 3 1 1 4 7 8 8 8 8 7 9 9 7 6 5 6 6 6 7 7 7 7 7 7 6 7 9 10 9 8 7 7 7 7 8 8 13 10 12
Wind_Direction
209 121 226 231 215 221 260 280 285 285 288 98 168 170 184 174 161 161 162 158 168 173 166 157 154 153 151 154 155 159 159 159 156 156 151 144 154 164 165 172 170 166 165 159
13 248 234 235 249 252 262 271 280 291 307 49 134 171 188 179 177 170 166 162 165 155 147 150 151 153 156 159 159 161 164 164 167 165 159 155 152 159 167 170 168 171 170 168
209 241 233 232 255 260 267 251 259 276 324 19 71 358 338 204 151 158 163 161 162 161 159 158 158 158 159 164 166 169 169 167 169 161 141 126 111 102 130 162 169 180 175 173
242 249 255 255 257 240 261 258 258 290 19 316 62 314 292 232 170 170 163 162 164 163 160 161 161 163 169 171 169 168 169 168 166 160 157 156 160 168 182 175 175 178 174 172
241 238 232 241 246 233 233 251 276 309 90 4 2 101 285 324 183 200 176 171 169 168 164 165 166 170 168 167 167 167 166 168 167 165 164 162 165 168 162 155 164 173 179 175
252 268 238 233 249 235 229 26 22 40 62 354 274 150 272 246 213 192 176 168 164 164 162 159 157 158 161 164 166 164 164 170 169 166 166 170 169 163 158 166 172 175 181 181
288 281 264 251 266 281 112 83 28 357 8 259 272 167 243 245 212 174 168 165 161 161 159 156 159 166 171 171 170 166 165 169 170 169 173 175 173 168 172 176 180 177 182 189
228 273 255 227 196 200 185 139 156 193 221 277 324 231 260 261 180 145 148 151 151 153 160 165 169 172 175 174 170 168 170 170 172 175 178 176 172 171 175 180 180 186 192 197
201 252 270 251 211 166 172 174 167 140 172 297 297 299 323 16 87 116 133 141 152 159 164 168 168 167 170 171 172 173 172 172 178 180 178 173 171 171 177 183 184 189 194 196
180 250 282 279 239 201 170 161 106 120 154 231 292 275 234 222 139 141 149 155 155 157 161 164 164 163 164 167 165 166 173 179 182 179 178 175 176 177 178 181 190 196 194 188
174 200 284 333 207 201 172 150 129 135 154 155 210 262 225 185 168 159 163 161 155 160 164 163 165 165 161 159 160 164 172 173 175 173 171 168 171 174 173 183 194 189 181 174
176 158 238 256 252 209 179 181 150 155 208 162 165 258 261 175 163 157 153 148 153 162 161 158 163 163 163 162 164 168 169 172 171 164 159 161 161 160 163 172 183 176 172 166
160 141 186 323 329 339 171 180 162 144 136 154 161 250 286 128 146 161 148 148 157 157 157 160 164 162 165 163 164 166 170 170 161 151 149 151 151 154 158 156 145 141 147 146
133 129 165 197 215 224 227 234 167 134 157 194 199 202 222 166 170 165 156 155 154 154 158 159 163 163 163 163 163 161 162 159 150 144 145 150 152 151 146 138 128 122 128 125
113 139 177 202 208 183 216 260 214 180 186 182 202 187 198 186 178 169 159 149 145 151 157 164 163 159 159 159 158 155 155 151 146 141 143 148 146 138 129 123 118 111 110 110
61 120 127 304 306 52 337 297 274 231 197 174 155 195 201 172 148 148 150 150 147 152 159 158 155 155 159 162 160 153 151 151 142 141 143 140 134 128 122 117 109 102 98 95
30 89 90 271 329 41 315 272 218 343 332 158 173 196 168 161 163 166 159 148 150 157 160 162 161 161 162 159 154 152 149 140 135 135 134 132 129 122 117 113 104 102 99 92
125 89 114 125 60 220 245 258 112 96 27 123 152 157 163 162 150 143 146 142 152 158 160 155 155 152 149 142 140 136 131 130 132 131 132 133 129 122 117 113 109 104 99 97
147 134 111 114 157 265 296 321 115 113 354 2 137 141 134 123 87 56 105 138 149 157 150 140 142 141 135 136 138 131 128 128 127 127 131 132 129 126 122 118 115 111 105 99
82 109 119 123 144 219 250 282 292 97 18 324 136 141 139 121 121 191 149 130 131 128 124 120 120 119 126 132 129 125 129 128 131 134 131 128 126 124 122 119 114 108 105 102
28 47 125 152 179 250 265 296 55 111 215 246 128 136 134 131 149 145 121 110 112 110 109 114 116 121 131 132 124 120 121 126 128 122 117 116 118 120 119 113 111 110 107 102
145 125 162 136 167 246 307 23 121 190 167 121 107 103 102 105 106 112 110 107 108 104 102 108 115 113 115 124 126 124 126 128 121 117 114 112 115 118 114 113 110 110 111 107
118 173 177 177 202 236 315 121 156 136 122 123 120 116 112 110 109 109 107 107 106 109 106 107 114 109 102 108 126 129 133 127 119 112 109 107 103 101 107 115 117 114 111 112
334 27 88 64 322 52 66 59 55 83 108 119 123 125 121 116 115 111 108 107 104 100 106 109 114 115 113 109 113 124 126 122 118 115 112 111 108 102 93 93 104 113 116 119
303 2 59 73 19 37 35 44 59 72 89 100 107 114 119 121 121 119 113 112 109 106 108 113 118 121 122 116 115 118 123 123 118 116 115 112 108 107 95 81 66 88 90 124
268 177 155 201 219 157 186 7 75 84 90 102 106 104 112 121 124 117 115 114 110 111 112 114 116 120 123 122 118 118 122 127 125 122 119 116 114 110 109 105 82 57 75 88